Preview of NWS' New Version of Forecast
This preview is not operational and should not be used for support decisions.

Regional Weather Roundup (RWR)

Issued by National Weather Service (NWS)

                            
000
ASUS43 KBIS 180110
RWRND 

NORTH DAKOTA REGIONAL WEATHER ROUNDUP
NATIONAL WEATHER SERVICE BISMARCK ND
800 PM CDT MON JUN 17 2019

NOTE: "FAIR" INDICATES FEW OR NO CLOUDS BELOW 12,000 FEET WITH NO
SIGNIFICANT WEATHER AND/OR OBSTRUCTIONS TO VISIBILITY.


NDZ001>003-009>011-017-180200-
NORTHWEST NORTH DAKOTA
  
CITY           SKY/WX    TMP DP  RH WIND       PRES   REMARKS
WILLISTON      MOSUNNY   70  44  39 NE8       30.05S                  
MINOT          MOSUNNY   66  46  48 N8        30.04S                  
MINOT AFB      MOSUNNY   64  46  51 NE7       30.03F                  
$$
 
NDZ018>021-031>035-040>046-180200-
SOUTHWEST NORTH DAKOTA
  
CITY           SKY/WX    TMP DP  RH WIND       PRES   REMARKS
BISMARCK       PTSUNNY   68  47  46 NE7       30.04S                  
DICKINSON      FAIR      65  44  46 E10       30.04S                  
GARRISON         N/A     63  45  51 VRB3      30.05R                  
HETTINGER ARPT CLOUDY    66  50  56 E9        30.05R                  
$$
 
NDZ004>008-012>016-024-026-027-054-180200-
NORTHEAST NORTH DAKOTA
  
CITY           SKY/WX    TMP DP  RH WIND       PRES   REMARKS
GRAND FORKS    LGT RAIN  61  55  81 N14       29.99R                  
GRND FRKS AFB  DRIZZLE   60  60  99 N12       30.00R                  
DEVILS LAKE    CLOUDY    61  53  75 NW9       30.04S                  
$$
 
NDZ022-023-025-028>030-036>039-047>053-180200-
SOUTHEAST NORTH DAKOTA
  
CITY           SKY/WX    TMP DP  RH WIND       PRES   REMARKS
FARGO          CLOUDY    62  53  72 NW8       29.99S                  
JAMESTOWN      CLOUDY    65  51  60 N15       30.02S                  
$$